Location: Newark
(6.7500°N, 43.3333°E)
Time: 16:19:19
(UTC+00:00)

Envisat - Visible Passes

Search period start: 17 July 2019 00:00
Search period end: 27 July 2019 00:00
Orbit: 764 x 766 km, 98.1° (Epoch: 17 July)

Date Brightness Start Highest point End Pass type
(mag) Time Alt. Az. Time Alt. Az. Time Alt. Az.
17 Jul 3.7 16:06:24 10° S 16:11:22 56° WSW 16:16:19 10° NNW visible
19 Jul 5.0 16:32:36 10° SSW 16:36:50 27° W 16:41:03 10° NW visible
20 Jul 3.2 15:55:05 10° S 16:00:08 77° WSW 16:05:12 10° NNW visible
21 Jul 5.8 17:00:09 10° SW 17:02:18 13° W 17:04:27 10° WNW visible
22 Jul 4.5 16:20:59 10° SSW 16:25:36 36° WSW 16:30:14 10° NW visible
23 Jul 3.0 15:43:51 10° SSE 15:48:56 79° ENE 15:54:00 10° N visible
24 Jul 5.6 16:47:46 10° SW 16:51:04 18° W 16:54:23 10° WNW visible
25 Jul 3.9 16:09:29 10° S 16:14:23 49° WSW 16:19:16 10° NNW visible
